Previsão horária em Cerro La Calera

Hoje, 3 Agosto, Terça-feira

Tempo Temperatura Precipitação Vento Pressão Humidade
00:00 +7°C° 0.2 mm 1 m/s 518 mmHg 92%
01:00 +7°C° 0.2 mm 1 m/s 517 mmHg 93%
02:00 +7°C° 0.2 mm 1 m/s 517 mmHg 94%
03:00 +7°C° 0 mm 1 m/s 517 mmHg 93%
04:00 +7°C° 0 mm 1 m/s 517 mmHg 93%
05:00 +7°C° 0 mm 1 m/s 517 mmHg 93%
06:00 +8°C° 0.1 mm 1 m/s 518 mmHg 90%
07:00 +10°C° 0.1 mm 1 m/s 519 mmHg 87%
08:00 +11°C° 0.1 mm 1 m/s 520 mmHg 84%
09:00 +12°C° 0.6 mm 1 m/s 520 mmHg 80%
10:00 +13°C° 0.6 mm 1 m/s 520 mmHg 76%
11:00 +14°C° 0.6 mm 1 m/s 521 mmHg 72%
12:00 +14°C° 0.9 mm 1 m/s 520 mmHg 73%
13:00 +14°C° 0.9 mm 1 m/s 520 mmHg 74%
14:00 +13°C° 0.9 mm 1 m/s 519 mmHg 75%
15:00 +13°C° 0.8 mm 1 m/s 519 mmHg 79%
16:00 +12°C° 0.8 mm 1 m/s 519 mmHg 84%
17:00 +10°C° 0.8 mm 0 m/s 518 mmHg 88%
18:00 +10°C° 0.5 mm 1 m/s 518 mmHg 89%
19:00 +9°C° 0.5 mm 1 m/s 518 mmHg 91%
20:00 +7°C° 0.5 mm 2 m/s 518 mmHg 92%
21:00 +8°C° 0 mm 1 m/s 517 mmHg 91%
22:00 +8°C° 0 mm 1 m/s 517 mmHg 91%
23:00 +7°C° 0 mm 1 m/s 517 mmHg 90%

Amanhã, 4 Agosto, Quarta-feira

Tempo Temperatura Precipitação Vento Pressão Humidade
00:00 +7°C° 0 mm 1 m/s 517 mmHg 90%
01:00 +7°C° 0 mm 1 m/s 516 mmHg 90%
02:00 +7°C° 0 mm 1 m/s 516 mmHg 89%
03:00 +6°C° 0 mm 1 m/s 516 mmHg 89%
04:00 +6°C° 0 mm 1 m/s 516 mmHg 89%
05:00 +6°C° 0 mm 1 m/s 516 mmHg 88%
06:00 +8°C° 0 mm 1 m/s 517 mmHg 83%
07:00 +10°C° 0 mm 1 m/s 518 mmHg 78%
08:00 +12°C° 0 mm 1 m/s 520 mmHg 73%
09:00 +13°C° 0.3 mm 1 m/s 520 mmHg 71%
10:00 +14°C° 0.3 mm 1 m/s 520 mmHg 68%
11:00 +15°C° 0.3 mm 2 m/s 520 mmHg 65%
12:00 +14°C° 0.7 mm 2 m/s 520 mmHg 70%
13:00 +13°C° 0.7 mm 2 m/s 519 mmHg 76%
14:00 +13°C° 0.7 mm 2 m/s 519 mmHg 82%
15:00 +12°C° 1 mm 1 m/s 518 mmHg 84%
16:00 +12°C° 1 mm 1 m/s 518 mmHg 87%
17:00 +11°C° 1 mm 1 m/s 518 mmHg 90%
18:00 +10°C° 1 mm 1 m/s 518 mmHg 92%
19:00 +9°C° 1 mm 1 m/s 518 mmHg 94%
20:00 +8°C° 1 mm 1 m/s 517 mmHg 95%
21:00 +8°C° 0.1 mm 1 m/s 518 mmHg 95%
22:00 +8°C° 0.1 mm 1 m/s 518 mmHg 94%
23:00 +7°C° 0.1 mm 0 m/s 518 mmHg 93%

Depois de amanhã, 5 Agosto, Quinta-feira

Tempo Temperatura Precipitação Vento Pressão Humidade
00:00 +8°C° 0 mm 1 m/s 517 mmHg 93%
01:00 +8°C° 0 mm 1 m/s 517 mmHg 93%
02:00 +7°C° 0 mm 1 m/s 517 mmHg 94%
03:00 +7°C° 0 mm 1 m/s 517 mmHg 94%
04:00 +7°C° 0 mm 1 m/s 517 mmHg 94%
05:00 +7°C° 0 mm 1 m/s 517 mmHg 94%
06:00 +8°C° 0 mm 1 m/s 518 mmHg 90%
07:00 +10°C° 0 mm 1 m/s 519 mmHg 86%
08:00 +11°C° 0 mm 1 m/s 520 mmHg 82%
09:00 +13°C° 0.2 mm 1 m/s 520 mmHg 76%
10:00 +14°C° 0.2 mm 2 m/s 521 mmHg 69%
11:00 +16°C° 0.2 mm 2 m/s 521 mmHg 62%
12:00 +15°C° 0.8 mm 2 m/s 521 mmHg 67%
13:00 +15°C° 0.8 mm 2 m/s 520 mmHg 71%
14:00 +14°C° 0.8 mm 1 m/s 519 mmHg 76%
15:00 +13°C° 1.1 mm 1 m/s 519 mmHg 80%
16:00 +12°C° 1.1 mm 1 m/s 519 mmHg 85%
17:00 +12°C° 1.1 mm 1 m/s 518 mmHg 90%
18:00 +11°C° 2.1 mm 1 m/s 518 mmHg 92%
19:00 +10°C° 2.1 mm 1 m/s 518 mmHg 94%
20:00 +9°C° 2.1 mm 1 m/s 518 mmHg 96%
21:00 +9°C° 2.1 mm 1 m/s 518 mmHg 96%
22:00 +9°C° 2.1 mm 1 m/s 518 mmHg 96%
23:00 +9°C° 2.1 mm 1 m/s 518 mmHg 96%

6 Agosto, Sexta-feira

Tempo Temperatura Precipitação Vento Pressão Humidade
00:00 +8°C° 0.8 mm 1 m/s 518 mmHg 96%
01:00 +8°C° 0.8 mm 1 m/s 518 mmHg 96%
02:00 +8°C° 0.8 mm 1 m/s 517 mmHg 96%
03:00 +7°C° 0.1 mm 1 m/s 517 mmHg 95%
04:00 +7°C° 0.1 mm 1 m/s 517 mmHg 95%
05:00 +7°C° 0.1 mm 1 m/s 517 mmHg 94%
06:00 +8°C° 0 mm 1 m/s 518 mmHg 85%
07:00 +9°C° 0 mm 1 m/s 519 mmHg 77%
08:00 +11°C° 0 mm 1 m/s 520 mmHg 68%
09:00 +13°C° 0 mm 1 m/s 520 mmHg 60%
10:00 +14°C° 0 mm 2 m/s 521 mmHg 51%
11:00 +16°C° 0 mm 2 m/s 522 mmHg 42%
12:00 +16°C° 0 mm 2 m/s 521 mmHg 46%
13:00 +16°C° 0 mm 3 m/s 521 mmHg 49%
14:00 +16°C° 0 mm 3 m/s 520 mmHg 52%
15:00 +14°C° 0.2 mm 2 m/s 520 mmHg 60%
16:00 +13°C° 0.2 mm 1 m/s 519 mmHg 69%
17:00 +12°C° 0.2 mm 1 m/s 518 mmHg 78%
18:00 +11°C° 0.2 mm 1 m/s 518 mmHg 78%
19:00 +10°C° 0.2 mm 1 m/s 518 mmHg 78%
20:00 +9°C° 0.2 mm 1 m/s 518 mmHg 78%
21:00 +9°C° 0 mm 1 m/s 518 mmHg 80%
22:00 +8°C° 0 mm 1 m/s 517 mmHg 81%
23:00 +7°C° 0 mm 1 m/s 517 mmHg 83%

7 Agosto, Sábado

Tempo Temperatura Precipitação Vento Pressão Humidade
00:00 +7°C° 0 mm 1 m/s 517 mmHg 83%
01:00 +7°C° 0 mm 1 m/s 516 mmHg 84%
02:00 +7°C° 0 mm 1 m/s 516 mmHg 84%
03:00 +6°C° 0 mm 1 m/s 516 mmHg 84%
04:00 +6°C° 0 mm 1 m/s 516 mmHg 84%
05:00 +6°C° 0 mm 1 m/s 516 mmHg 83%
06:00 +8°C° 0 mm 1 m/s 517 mmHg 78%
07:00 +10°C° 0 mm 1 m/s 519 mmHg 72%
08:00 +12°C° 0 mm 1 m/s 520 mmHg 66%
09:00 +14°C° 0 mm 1 m/s 520 mmHg 62%
10:00 +15°C° 0 mm 1 m/s 521 mmHg 57%
11:00 +17°C° 0 mm 2 m/s 521 mmHg 53%
12:00 +16°C° 0.6 mm 2 m/s 521 mmHg 59%
13:00 +15°C° 0.6 mm 2 m/s 520 mmHg 65%
14:00 +15°C° 0.6 mm 2 m/s 519 mmHg 71%
15:00 +14°C° 1.2 mm 2 m/s 519 mmHg 76%
16:00 +13°C° 1.2 mm 1 m/s 518 mmHg 81%
17:00 +12°C° 1.2 mm 1 m/s 517 mmHg 86%
18:00 +11°C° 1 mm 1 m/s 517 mmHg 88%
19:00 +10°C° 1 mm 1 m/s 517 mmHg 90%
20:00 +8°C° 1 mm 0 m/s 517 mmHg 91%
21:00 +8°C° 0.2 mm 0 m/s 517 mmHg 91%
22:00 +8°C° 0.2 mm 0 m/s 517 mmHg 91%
23:00 +7°C° 0.2 mm 0 m/s 517 mmHg 91%

8 Agosto, Domingo

Tempo Temperatura Precipitação Vento Pressão Humidade
00:00 +7°C° 0 mm 0 m/s 517 mmHg 91%
01:00 +8°C° 0 mm 1 m/s 516 mmHg 92%
02:00 +8°C° 0 mm 1 m/s 516 mmHg 92%
03:00 +7°C° 0 mm 1 m/s 516 mmHg 92%
04:00 +7°C° 0 mm 1 m/s 516 mmHg 93%
05:00 +7°C° 0 mm 1 m/s 515 mmHg 94%
06:00 +8°C° 0 mm 1 m/s 516 mmHg 89%
07:00 +10°C° 0 mm 1 m/s 518 mmHg 85%
08:00 +12°C° 0 mm 1 m/s 519 mmHg 80%
09:00 +13°C° 0.3 mm 1 m/s 519 mmHg 75%
10:00 +14°C° 0.3 mm 1 m/s 520 mmHg 70%
11:00 +15°C° 0.3 mm 1 m/s 520 mmHg 66%
12:00 +15°C° 1 mm 1 m/s 519 mmHg 69%
13:00 +15°C° 1 mm 1 m/s 519 mmHg 72%
14:00 +14°C° 1 mm 1 m/s 518 mmHg 76%
15:00 +13°C° 1.1 mm 1 m/s 518 mmHg 80%
16:00 +13°C° 1.1 mm 1 m/s 517 mmHg 84%
17:00 +12°C° 1.1 mm 1 m/s 517 mmHg 88%
18:00 +11°C° 0.8 mm 1 m/s 517 mmHg 90%
19:00 +10°C° 0.8 mm 1 m/s 517 mmHg 92%
20:00 +9°C° 0.8 mm 1 m/s 516 mmHg 93%
21:00 +9°C° 0.3 mm 1 m/s 516 mmHg 94%
22:00 +9°C° 0.3 mm 1 m/s 517 mmHg 95%
23:00 +9°C° 0.3 mm 1 m/s 517 mmHg 96%
Mostrar mais

Necessitamos do seu Consentimento

A Meteoprog e os seus Fornecedores de Serviços podem armazenar e aceder a dados pessoais como cookies, identificadores do dispositivo ou outras tecnologias semelhantes existentes no seu dispositivo e processar estes dados para personalizar conteúdos e anúncios, assim como funcionalidades nas redes sociais e análise de tráfego.

  • Armazenar e/ou aceder a informações no seu dispositivo

    Os cookies, identificadores do dispositivo ou outras informações podem ser armazenados ou acedidos no seu dispositivo, para os fins acima indicados.

  • Anúncios e conteúdos personalizados, medição de anúncios e conteúdos, dados sobre o público-alvo e desenvolvimento de produtos

    Os anúncios e os conteúdos podem ser personalizados com base num perfil. Podem ser adicionados dados adicionais para uma maior personalização dos anúncios e dos conteúdos. A eficácia dos anúncios e dos conteúdos pode ser medida. Podem ser obtidas informações sobre o público que visualizou os anúncios e os conteúdos. Estes dados podem ser usados para desenvolver ou melhorar sistemas, softwares ou a experiência do utilizador.

Ao clicar em "Eu concordo”, permitirá o uso de cookies, identificadores do dispositivo e web beacons mencionados ou outras tecnologias semelhantes. As configurações do navegador do seu dispositivo podem ser alteradas.

Para certos fins, podem ser invocados interesses legítimos ao invés de consentimento. Pode ler mais informação sobre este assunto na nossa Política de Privacidade e Cookies.